Location: Del Amo
(33.8464°N, 118.2104°W)
Time: 19:32:22
(UTC+00:00)

S-56A Canister/Altair - Pass Details

Date: 19 September 2024
Orbit: 636 x 2487 km, 38.9° (Epoch: 14 October)

Event Time Altitude Azimuth Distance (km) Brightness Sun altitude
Rises 09:52:22 0° 268° (W) 5,057 - -44.1°
Reaches altitude 10° 10:00:01 10° 235° (SW) 4,565 - -43.0°
Maximum altitude 10:02:20 11° 224° (SW) 4,633 - -42.6°
Drops below altitude 10° 10:04:45 10° 214° (SSW) 4,801 - -42.2°
Sets 10:14:12 0° 182° (S) 6,099 - -40.7°
